Tracking 23764 objects as of 18-Oct-2021
HD Live streaming from Space Station
objects crossing your sky now

LEMUR 2 DAISY-HARPER

Track LEMUR 2 DAISY-HARPER now!
10-day predictions
LEMUR 2 DAISY-HARPER is classified as:


NORAD ID: 43889
Int'l Code: 2018-111P
Perigee: 571.4 km
Apogee: 588.3 km
Inclination: 97.7 °
Period: 96.1 minutes
Semi major axis: 6950 km
RCS: Unknown
Launch date: December 27, 2018
Source: United States (US)
Launch site: VOSTOCHNY COSMODROME (VOSTO)
aabbcc
Your satellite tracking list
Your tracking list is empty




NASA's NSSDC Master Catalog

Two Line Element Set (TLE):
1 43889U 18111P   21290.26911402  .00001070  00000-0  95180-4 0  9998
2 43889  97.6833 197.7434 0012180  49.6429 310.5854 14.98107674153384
Source of the keplerian elements: AFSPC